User: anonymous   Login
Location: Helsinki
(60.1674°N, 24.9426°E)
Time: 20:10:00
(UTC+02:00)
Language:

COSMOS 2543 - Orbit

View from above orbital plane
View from above orbital plane
View from above satellite
View from above satellite

Ground track
Ground track

The orbit is defined by the following mean orbital elements,

1 44835U 19079D   24239.08914493  .13719927  28148-5  11897-3 0  9994
2 44835  97.7078  12.4018 0012883 266.2390  93.7441 16.51465352261386
Epoch (UTC): 26 August 2024 02:08:22
Eccentricity: 0.0012883
inclination: 97.7078°
perigee height: 127 km
apogee height: 144 km
right ascension of ascending node: 12.4018°
argument of perigee: 266.2390°
revolutions per day: 16.51465352
mean anomaly at epoch: 93.7441°

The dashed part of the orbit path shows where the satellite is in the earth's shadow,  

DLR